Location: Holcomb Observatory and Planetarium
(39.8415°N, 86.1714°W)
Time: 04:38:33
(UTC-04:00)

Hubble Space Telescope - Visible Passes

Search period start: 28 July 2016 00:00
Search period end: 07 August 2016 00:00
Orbit: 539 x 543 km, 28.5° (Epoch: 27 July)

Date Brightness Start Highest point End Pass type
(mag) Time Alt. Az. Time Alt. Az. Time Alt. Az.
02 Aug 3.1 05:56:10 10° S 05:57:35 11° SSE 05:59:00 10° SE visible
03 Aug 3.0 05:45:46 10° SSW 05:47:43 13° SSE 05:49:40 10° SE visible
04 Aug 2.8 05:36:22 12° SSW 05:37:52 14° S 05:40:08 10° SE visible
05 Aug 2.6 05:27:08 15° S 05:28:00 15° S 05:30:29 10° SE visible
06 Aug 2.6 05:17:58 16° S 05:18:09 16° S 05:20:46 10° SE visible
